Погода в Мексико

США     39°10′13″N   91°52′57″W
темп.,
°C
ветер,
м/с
пор.,
м/с
влажн.,
%
обл.,
%
осадки,
мм/ч
давл.,
гПа
погр.,
м
7 июля, чт
чт701:00+23вюв6898100 15.7 1013183
04:00+22ю2596100 6.1 1012157
07:00+22ю5898100 73.4 1014261
10:00+22ссв1495100 24.1 1015148
13:00+26ю5880100 25.2 1013333
16:00+30ююз4670100 0.0 1013894
19:00+28в4680100 0.0 1011114
22:00+25вюв49835 0.0 1011183
8 июля, пт
пт801:00+24юв4119177 0.1 1011236
04:00+24сз3891100 1.8 1012287
07:00+22ююв5997100 3.8 1012182
10:00+26з3583100 0.0 1012550
13:00+28с3481100 0.1 1014851
16:00+30с2271100 0.1 10131116
19:00+27ссв468761 0.6 1013282
22:00+23св511959 0.3 1016450
9 июля, сб
сб901:00+20св5119513 0.3 1017446
04:00+19св4109842 0.0 1017361
07:00+19св5995100 0.0 1019414
10:00+21всв578598 0.0 1020608
13:00+25св567246 0.1 10201129
16:00+27св566724 0.0 10191341
19:00+24св588313 0.1 1019367
22:00+20всв39950 0.0 1019204
10 июля, вс
вс1001:00+18вюв35900 0.0 1020100
04:00+16вюв34900 0.0 102058
07:00+17вюв24900 0.0 102097
10:00+22вюв23755 0.0 1019457
13:00+26вюв33630 0.0 1018843
16:00+27юв33590 0.0 1016880
19:00+26вюв34750 0.0 1014149
22:00+20юв37730 0.0 1014106
11 июля, пн
пн1101:00+19ююв487068 0.0 1014123
04:00+18ю4968100 0.0 1013143
07:00+19ююз3882100 0.0 1014132
10:00+25ююз4673100 0.0 1013284
13:00+30з456252 0.0 1013749
16:00+32зсз23560 0.0 1011925
19:00+31с126926 0.0 101120
22:00+24ссв36905 0.0 101288